Regional Weather Roundup
Issued by NWS Upton, NY

Current Version | Previous Version | Text Only | Print | Product List | Glossary Off
Versions: 1 2 3 4 5 6 7 8 9 10 11 12 13 14 15 16 17 18 19 20 21 22 23 24 25 26 27 28 29 30 31 32 33 34 35 36 37 38 39 40 41 42 43 44 45 46 47 48 49

000
ASUS41 KOKX 290408
RWROKX

REGIONAL WEATHER ROUNDUP
NATIONAL WEATHER SERVICE NEW YORK NY
1200 AM EDT SUN MAR 29 2015

NOTE: "FAIR" INDICATES FEW OR NO CLOUDS BELOW 12,000 FEET WITH NO
SIGNIFICANT WEATHER AND/OR OBSTRUCTIONS TO VISIBILITY.

NYZ071-072-176-178-NJZ106-104-290500-
NEW YORK CITY METRO AREA


CITY           SKY/WX    TMP DP  RH WIND       PRES   REMARKS
CENTRAL PARK   CLOUDY    27  17  66 NW10G20   30.14R HAZE    WCI  17
LAGUARDIA APRT FLURRIES  29  19  66 NW14G22   30.12R WCI  18
KENNEDY INTL   FLURRIES  30  17  58 NW16G23   30.12R WCI  19
NEWARK/LIBERTY MOCLDY    28  16  60 NW15G23   30.14R WCI  16
BRNX BOT. GARD   N/A    N/A N/A N/A NW7       30.13R
TETERBORO      CLOUDY    27  16  63 NW13G23   30.13R WCI  16
$$

NYZ177-179-078>081-290500-
LONG ISLAND NEW YORK

CITY           SKY/WX    TMP DP  RH WIND       PRES   REMARKS
FARMINGDALE    LGT SNOW  27  23  85 NW9       30.10R FOG     WCI  18
ISLIP          LGT SNOW  28  23  81 NW18      30.06R WCI  15
SHIRLEY        LGT SNOW  28  24  85 NW16G25   30.07R FOG     WCI  16
WESTHAMPTON    LGT SNOW  29  25  85 NW13      30.06R VSB 1   WCI  19
MONTAUK POINT    N/A     32  29  88 NW13      30.03R WCI  22
$$

NYZ052-065-067-290500-
HUDSON VALLEY

CITY           SKY/WX    TMP DP  RH WIND       PRES   REMARKS
WHITE PLAINS   LGT SNOW  25  20  81 NW12      30.08R FOG     WCI  14
NEWBURGH       CLOUDY    25  16  68 N7        30.12R WCI  17
MONTGOMERY     CLOUDY    26   8  46 NW12      30.11R WCI  16
POUGHKEEPSIE   CLOUDY    28  13  53 NW6       30.12R WCI  22
ALBANY         MOCLDY    25   8  48 NW12G17   30.15R WCI  14
$$

NJZ001-105-106-008-010-013-015-019>022-104-290500-
NEW JERSEY

CITY           SKY/WX    TMP DP  RH WIND       PRES   REMARKS
NEWARK/LIBERTY MOCLDY    28  16  60 NW15G23   30.14R WCI  16
TETERBORO      CLOUDY    27  16  63 NW13G23   30.13R WCI  16
CALDWELL       CLOUDY    26  14  60 N7        30.14R WCI  18
MORRISTOWN     CLOUDY    28  14  54 N14G21    30.14R WCI  17
SOMERVILLE     CLOUDY    27   7  42 NW16G24   30.14R WCI  15
SUSSEX         CLOUDY    24   5  44 VRB7      30.13S WCI  16
ANDOVER          N/A     23   4  44 N9        30.13R WCI  13
TRENTON        CLOUDY    26   6  42 N16       30.14R WCI  14
MILLVILLE      CLEAR     28  16  60 NW9       30.17R WCI  19
ATLANTIC CITY  CLEAR     27  12  53 NW10      30.15R WCI  17
WRIGHTSTOWN    CLEAR     26   9  48 NW20      30.13R WCI  12
TOMS RIVER     CLEAR     27  10  50 NW9       30.14R WCI  17
BELMAR         CLOUDY    28   9  43 NW17      30.11R WCI  16
$$

PAZ047>061-062-071-290500-
EASTERN PENNSYLVANIA

CITY           SKY/WX    TMP DP  RH WIND       PRES   REMARKS
PHILADELPHIA   MOCLDY    29   7  39 N16       30.19R WCI  17
ALLENTOWN      CLOUDY    25   6  44 N15       30.18R WCI  13
SCRANTON       CLOUDY    22   4  46 N7        30.16R WCI  13
$$

CTZ002-004>006-009-010-012-RIZ004-006-007-MAZ004-011-015-290500-
SOUTHERN NEW ENGLAND
 IN CT

CITY           SKY/WX    TMP DP  RH WIND       PRES   REMARKS
BRADLEY INTL   CLOUDY    30  16  56 N15G23    30.06R WCI  19
HARTFORD       CLOUDY    30  17  58 N10G20    30.07R WCI  21
DANBURY        CLOUDY    25  13  60 VRB7      30.10R WCI  17
WTRBRY/OXFORD  CLOUDY    25  14  63 N13       30.05R WCI  13
BRIDGEPORT     CLOUDY    28  22  78 NW12      30.08R WCI  18
MERIDEN        CLOUDY    29  22  75 NW8       30.07R WCI  21
NEW HAVEN      CLOUDY    29  25  85 NW7       30.06R WCI  22
CHESTER        LGT SNOW  28  27  93 N14G22    30.03R WCI  17
GROTON         CLOUDY    30  26  85 N14G21    30.03R WCI  19
WILLIMANTIC    LGT SNOW  28  24  85 NW7       30.05R FOG     WCI  21

 IN RI

CITY           SKY/WX    TMP DP  RH WIND       PRES   REMARKS
PROVIDENCE     FLURRIES  31  27  85 N14G20    30.03R WCI  21
BLOCK ISLAND   CLOUDY    32  30  93 NE5       30.01R WCI  27
WESTERLY       LGT SNOW  31  29  92 N9        30.03R FOG     WCI  23

 IN MA

CITY           SKY/WX    TMP DP  RH WIND       PRES   REMARKS
BOSTON         CLOUDY    32  19  58 NW16G25   30.02R WCI  21
WORCESTER      CLOUDY    24  16  71 NW13G20   29.99R WCI  12
WESTFIELD      CLOUDY    28  12  51 N20G25    30.06R WCI  15
PROVINCETOWN   CLOUDY    34  30  86 NW9       30.00R WCI  26
NANTUCKET      CLOUDY    33  29  85 NE5       29.98R WCI  29
$$

ANZ330-335-338-340-345-350-353-355-290500-
COASTAL MARINE OBSERVATIONS


STATION/POSITION TIME  SKY/WX   TEMP    WIND        PRES    VSBY  WAVE
                                AIR SEA DIR/SP/G                  HT/PER
                 (UTC)          (F)     (DEG/KT/KT) (MB)    (MI)  (FT/S)
NY HARB ENTRANCE 0350            32 38  320/ 19/ 23 1018.7          4/10
4S FIRE IS       0303               36                N/A           3/10
20S FIRE ISLAND  0250               38              1017.8          5/ 4
23SW MTP         0350                                 N/A           5/10
HUDSON CANYON    NOT AVBL
EXECUTION ROCKS  NOT AVBL
WESTERN LI SOUND NOT AVBL
CENTRAL LI SOUND NOT AVBL
EASTERN LI SOUND NOT AVBL
ROBBINS REEF     0300            29     350/ 15/ 19 1018.4
$$


>>>>>>>>>>>>>>>>>>>>>>>>>>>> KEY <<<<<<<<<<<<<<<<<<<<<<<<<<<
>                                                          <
>     SKY/WX - SKY CONDITION/PRESENT WEATHER               <
>     TMP    - TEMPERATURE IN FAHRENHEIT                   <
>     DP     - DEWPOINT IN FAHRENHEIT                      <
>     RH     - RELATIVE HUMIDITY IN PERCENT                <
>     WIND   - DIRECTION AND SPEED IN MPH                  <
>     PRES   - MEAN SEA LEVEL PRESSURE IN INCHES OF HG     <
>     WCI    - WIND CHILL INDEX                            <
>     VSB    - VISIBILITY IN MILES                         <
>     HX     - HEAT INDEX                                  <
>     TC     - TEMPERATURE IN CELSIUS                      <
>     VRB    - VARIABLE WIND DIRECTION                     <
>                                                          <
>>>>>>>>>>>>>>>>>>>>>>>>>>>> KEY <<<<<<<<<<<<<<<<<<<<<<<<<<<





USA.gov is the U.S. government's official web portal to all federal, state and local government web resources and services.